Location: Azul
(36.7830°S, 59.8500°W)
Time: 02:47:52
(UTC-03:00)

UWE-3 - Pass Details

Date: 27 October 2021
Orbit: 584 x 681 km, 97.7° (Epoch: 04 December)

Event Time Altitude Azimuth Distance (km) Brightness Sun altitude
Exits shadow 05:04:49 13° 316° (NW) 1,777 ? -11.0°
Maximum altitude 05:07:23 21° 274° (W) 1,417 ? -10.6°
Drops below altitude 10° 05:10:49 10° 224° (SW) 2,058 ? -10.0°
Sets 05:13:33 0° 208° (SSW) 2,997 ? -9.5°
